Location: B?ezina
(49.8085°N, 13.6013°E)
Time: 10:49:36
(UTC+00:00)

Meteor 1-14 Rocket - Pass Details

Date: 19 May 2025
Orbit: 833 x 917 km, 81.3° (Epoch: 23 June)

Event Time Altitude Azimuth Distance (km) Brightness Sun altitude
Rises 21:12:23 0° 346° (NNW) 3,409 9.0 -16.1°
Reaches altitude 10° 21:14:48 10° 344° (NNW) 2,477 7.9 -16.3°
Maximum altitude 21:20:23 73° 262° (W) 900 4.3 -16.7°
Enters shadow 21:23:55 24° 182° (S) 1,719 5.3 -16.9°
